CW2313 Weather Reports


time (UTC)temp
F
wind
direction
speed
knots
gust
knots
rain 1hr
in
rain 24hr
in
rain mn
in
humidity
%
barometer
mb
20260505200055 60 136 0.0 0.0 0.00 0.00 0.00 61 1016.5
20260505194552 59 187 0.0 0.0 0.00 0.00 0.00 66 1016.5
20260505193034 59 342 0.0 1.7 0.00 0.00 0.00 69 1016.5
20260505191542 59 187 0.0 0.0 0.00 0.00 0.00 70 1016.5
20260505190016 59 256 0.0 0.0 0.00 0.00 0.00 71 1016.5
20260505184525 58 233 0.0 0.0 0.00 0.00 0.00 73 1016.4
20260505183104 58 4 0.0 0.0 0.00 0.00 0.00 73 1016.3
20260505181559 59 227 0.0 0.0 0.00 0.00 0.00 69 1016.3
20260505180045 59 12 0.0 0.0 0.00 0.00 0.00 69 1016.2
20260505174538 59 316 0.0 0.0 0.00 0.00 0.00 67 1016.1
20260505173020 58 12 0.0 0.0 0.00 0.00 0.00 65 1016.1
20260505171518 58 197 0.0 0.0 0.00 0.00 0.00 68 1016.0
20260505170057 58 230 0.0 0.0 0.00 0.00 0.00 68 1015.8
20260505164556 57 275 0.0 0.0 0.00 0.00 0.00 70 1015.7
20260505163037 57 216 0.0 0.0 0.00 0.00 0.00 70 1015.5
20260505161533 56 209 0.0 0.0 0.00 0.00 0.00 71 1012.3
20260505153052 55 204 0.0 0.0 0.00 0.00 0.00 74 1015.4
20260505151546 54 202 0.0 0.0 0.00 0.00 0.00 75 1015.3
20260505124553 47 70 0.0 0.0 0.00 0.00 0.00 76 1014.3
20260505123033 47 71 0.0 0.0 0.00 0.00 0.00 74 1014.3
20260505121536 46 70 0.0 0.0 0.00 0.00 0.00 75 1014.3
20260505120016 46 70 0.0 0.0 0.00 0.00 0.00 74 1014.2
20260505114512 46 70 0.0 0.0 0.00 0.00 0.00 74 1014.1
20260505113103 46 70 0.0 0.0 0.00 0.00 0.00 74 1014.2
20260505111554 47 70 0.0 0.0 0.00 0.00 0.00 72 1014.1
20260505101523 47 70 0.0 0.0 0.00 0.00 0.00 73 1013.9
20260505100057 47 70 0.0 0.0 0.00 0.00 0.00 72 1014.0
20260505094601 47 70 0.0 0.0 0.00 0.00 0.00 72 1013.9
20260505093046 47 70 0.0 0.0 0.00 0.00 0.00 72 1014.0
20260505091535 46 70 0.0 0.0 0.00 0.00 0.00 73 1013.9
20260505090021 46 70 0.0 0.0 0.00 0.00 0.00 72 1013.9
20260505084525 46 70 0.0 0.0 0.00 0.00 0.00 75 1013.9
20260505083115 47 70 0.0 0.0 0.00 0.00 0.00 73 1013.9
20260505081554 47 71 0.0 0.0 0.00 0.00 0.00 73 1014.0
20260505080052 47 70 0.0 0.0 0.00 0.00 0.00 72 1014.0
20260505074535 48 70 0.0 0.0 0.00 0.00 0.00 70 1014.0
20260505073034 48 12 0.0 3.5 0.00 0.00 0.00 68 1014.0
20260505071513 48 41 0.0 0.0 0.00 0.00 0.00 72 1013.9
20260505070022 49 41 0.0 0.0 0.00 0.00 0.00 71 1013.7
20260505064558 49 41 0.0 0.0 0.00 0.00 0.00 69 1013.6
20260505063056 50 42 0.0 0.0 0.00 0.00 0.00 68 1013.6
20260505061603 50 42 0.0 0.0 0.00 0.00 0.00 68 1013.6
20260505060041 50 42 0.0 0.0 0.00 0.00 0.00 70 1013.6
20260505054522 51 42 0.0 0.0 0.00 0.00 0.00 67 1013.6
20260505053023 51 42 0.0 0.0 0.00 0.00 0.00 68 1013.6
20260505051600 52 42 0.0 0.0 0.00 0.00 0.00 66 1013.6
20260505041524 53 42 0.0 0.0 0.00 0.00 0.00 63 1013.6
20260505040037 53 23 0.0 0.0 0.00 0.00 0.00 62 1013.5
20260505034505 54 18 0.0 0.0 0.00 0.00 0.00 62 1013.4
20260505033011 54 18 0.0 0.0 0.00 0.00 0.00 61 1013.4
20260505031551 55 19 0.0 0.0 0.00 0.00 0.00 61 1013.2
20260505030046 57 18 0.0 0.0 0.00 0.00 0.00 59 1013.1
20260505024529 58 5 0.0 0.0 0.00 0.00 0.00 54 1013.1
20260505023028 59 34 0.0 6.1 0.00 0.00 0.00 52 1013.2
20260505021511 59 50 0.0 8.7 0.00 0.00 0.00 50 1013.1
20260505020013 60 60 0.0 7.0 0.00 0.00 0.00 49 1013.2
20260505014553 60 51 0.0 0.9 0.00 0.00 0.00 48 1013.3
20260505013052 60 35 0.0 9.6 0.00 0.00 0.00 47 1013.3
20260505011537 61 6 0.0 0.0 0.00 0.00 0.00 46 1013.4
20260505010038 61 300 0.0 0.0 0.00 0.00 0.00 45 1013.4
20260505004518 62 41 0.0 0.0 0.00 0.00 0.00 44 1013.6
20260505003016 62 25 0.0 0.0 0.00 0.00 0.00 43 1013.5
20260505001559 63 252 0.0 0.0 0.00 0.00 0.00 42 1013.5
20260505000108 63 68 0.0 0.0 0.00 0.00 0.00 43 1013.5
20260504234540 63 287 0.0 0.0 0.00 0.00 0.00 41 1013.5
20260504233040 64 206 0.0 0.0 0.00 0.00 0.00 40 1013.5
20260504231522 63 44 0.0 0.0 0.00 0.00 0.00 39 1013.5
20260504230022 64 28 0.0 0.0 0.00 0.00 0.00 38 1013.6
20260504224504 64 60 0.0 0.0 0.00 0.00 0.00 37 1013.8
20260504223002 63 259 0.0 0.0 0.00 0.00 0.00 37 1013.8
20260504221547 62 359 0.0 0.0 0.00 0.00 0.00 38 1013.9
20260504220050 63 327 0.0 0.0 0.00 0.00 0.00 39 1013.9
20260504214530 63 29 0.0 0.0 0.00 0.00 0.00 41 1014.1
20260504213029 63 96 0.0 0.0 0.00 0.00 0.00 44 1014.2
20260504211507 63 137 0.0 0.0 0.00 0.00 0.00 43 1014.3
20260504210007 63 30 0.0 0.0 0.00 0.00 0.00 42 1014.3
20260504204559 63 301 0.0 0.0 0.00 0.00 0.00 42 1014.3
20260504203049 63 277 0.0 0.0 0.00 0.00 0.00 40 1014.4
20260504201532 63 22 0.0 0.0 0.00 0.00 0.00 40 1014.4